Terug naar catalogus

CZ-6A DEB

ActiefSSO
NORAD 54472·DEBRIS·🇨🇳 China

Gelanceerd Nov 11, 2022 vanaf Taiyuan Satellite Launch Center

Loading…

Volgende Passages (komende 24 uur)

TLE

VersSource: Space-Track

Epoch: Sep 14, 2026, 00:17 UTC

1 54472U 22151GY  26257.01249551  .00000061  00000-0  49637-4 0  9992
2 54472  98.7835 276.7578 0005053 136.9356 223.2216 14.19927874198651

Volg CZ-6A DEB in realtime met AllMySat

Download on the App Store